COSMOS 1275 DEB

Satellite information

Favourite Embed

Satellite Type and Status

DEBRISIN ORBIT

Key statistics

Satellite COSMOS 1275 DEB at a glance.

Uptime

16263

Days in orbit

Revolutions

≈ 14.5

Per day

Orbit

LEO

Low Earth Orbit

Inclination

83.0

Latest

Satellite identification and parameters

Extended collection of information and parameters for COSMOS 1275 DEB.

Object identification

Identified? True

Debris? True

Object name: COSMOS 1275 DEB

International designator: 1981-053QE

Object number (NORAD): 42118

Object ID (CCSDS): 42118

Country: COMMONWEALTH OF INDEPENDENT STATES (CIS)

Current information (Y/N): Y

RCS size: SMALL

Orbital parameters

Period: 99.181 minutes

Inclination: 82.9513 deg

SMA: 7097.594 km

Apoapsis: 745.688 km

Periapsis: 693.231 km

RAAN: 329.0281 deg

Eccentricy: 0.0036954

Argument of periapsis: 359.267 deg

Mean anomaly: 0.8468 deg

Mean motion: 14.5189762 rev/day

Mean motion (dot): 0.00031845 rev/day2

B* drag term: 0.0077979081 1/REarth

Two-line elements (TLE)

Creation date: Dec. 11, 2025, 7:14 p.m.

Reference frame: TEME

Reference center: EARTH

Epoch: Dec. 11, 2025, 9:26 a.m. UTC

TLE line 0: 0 COSMOS 1275 DEB

TLE line 1: 1 42118U 81053QE 25345.39309670 .00031845 00000-0 77979-2 0 9991

TLE line 2: 2 42118 82.9513 329.0281 0036954 359.2670 0.8468 14.51897620623460

Live tracking on map

Real-time ground track for satellite COSMOS 1275 DEB.

In-orbit conjunctions

A list of the most updated potential collisions computed for object COSMOS 1275 DEB.

Target Orbit TCA Probability of collision Miss distance Type
CZ-6A DEB LEO 2025-02-08 09:54:21 0.0001490504 791.0 (m) DEBRIS
OSCAR 18 (WEBERSAT) SSO 2025-02-03 10:44:38 0.0001776162 235.0 (m) PAYLOAD
SCOUT G-1 DEB LEO 2024-09-28 00:20:02 0.0004921498 63.0 (m) DEBRIS
NOAA 16 DEB SSO 2024-06-24 18:56:48 0.000220916 89.0 (m) DEBRIS

Associated space launch

Navigation satellite providing location information for the Tsiklon-B navigation system

COSMOS 1275 DEB was lifted into orbit during the mission ‘Kosmos-3M | Parus 27’, on board a Kosmos-3M space rocket.

The launch took place on June 4, 1981, 3:41 p.m. from 132/2.

For more information about the launch, click the button.

Launch to space Kosmos-3M | Parus 27
Kosmos-3M | Parus 27

Agency: N/A

Status: Launch Successful

Launch date: June 4, 1981, 3:41 p.m. UTC

Rocket: Kosmos-3M

Launch pad: 132/2

Location: Plesetsk Cosmodrome, Russian Federation

...

Latest news about this satellite

There are no fresh news available about this satellite. Check back as we update our databases every day.


Newsletter sign-up

Weekly statistics, charts and insights to help you stay on top of the space industry.